Time,TemperatureF,DewpointF,PressureIn,WindDirection,WindDirectionDegrees,WindSpeedMPH,WindSpeedGustMPH,Humidity,HourlyPrecipIn,Conditions,Clouds,dailyrainin,SoftwareType,DateUTC
2015-09-05 00:00:00,68.6,66.5,29.96,SSE,148,0.0,0.0,93,0.00,,,0.00,Wunderground v.1.15,2015-09-05 04:00:00,
2015-09-05 00:05:00,68.5,66.4,29.96,SSE,148,0.0,0.0,93,0.00,,,0.00,Wunderground v.1.15,2015-09-05 04:05:00,
2015-09-05 00:14:00,68.4,66.6,29.96,SSE,148,0.0,0.0,94,0.00,,,0.00,Wunderground v.1.15,2015-09-05 04:14:00,
2015-09-05 00:20:00,68.4,66.6,29.96,SSE,148,0.0,0.0,94,0.00,,,0.00,Wunderground v.1.15,2015-09-05 04:20:00,
2015-09-05 00:25:00,68.3,66.5,29.96,SSE,148,0.0,0.0,94,0.00,,,0.00,Wunderground v.1.15,2015-09-05 04:25:00,
2015-09-05 00:35:00,68.2,66.7,29.96,SSE,148,0.0,0.0,95,0.00,,,0.00,Wunderground v.1.15,2015-09-05 04:35:00,
2015-09-05 00:45:00,68.0,66.5,29.97,SSE,148,0.0,0.0,95,0.00,,,0.00,Wunderground v.1.15,2015-09-05 04:45:00,
2015-09-05 00:50:00,68.0,66.2,29.97,SSE,148,0.0,0.0,94,0.00,,,0.00,Wunderground v.1.15,2015-09-05 04:50:00,
2015-09-05 01:00:00,68.3,65.9,29.97,SE,145,0.0,0.0,92,0.00,,,0.00,Wunderground v.1.15,2015-09-05 05:00:00,
2015-09-05 01:05:00,69.0,65.6,29.97,ESE,119,2.0,2.0,89,0.00,,,0.00,Wunderground v.1.15,2015-09-05 05:05:00,
2015-09-05 01:15:00,70.0,65.6,29.97,SE,132,1.0,2.0,86,0.00,,,0.00,Wunderground v.1.15,2015-09-05 05:15:00,
2015-09-05 01:20:00,70.3,66.2,29.97,East,86,1.0,1.0,87,0.00,,,0.00,Wunderground v.1.15,2015-09-05 05:20:00,
2015-09-05 01:25:00,71.0,65.6,29.97,ESE,105,2.0,3.0,83,0.00,,,0.00,Wunderground v.1.15,2015-09-05 05:25:00,
2015-09-05 01:35:00,71.5,65.7,29.97,SE,128,3.0,7.0,82,0.00,,,0.00,Wunderground v.1.15,2015-09-05 05:35:00,
2015-09-05 01:45:00,71.4,66.0,29.97,ESE,119,2.0,4.0,83,0.00,,,0.00,Wunderground v.1.15,2015-09-05 05:45:00,
2015-09-05 01:50:00,71.3,65.9,29.97,ESE,117,2.0,5.0,83,0.00,,,0.00,Wunderground v.1.15,2015-09-05 05:50:00,
2015-09-05 02:00:00,71.2,65.8,29.97,SE,126,2.0,8.0,83,0.00,,,0.00,Wunderground v.1.15,2015-09-05 06:00:00,
2015-09-05 02:05:00,71.3,65.9,29.97,SE,125,1.0,8.0,83,0.00,,,0.00,Wunderground v.1.15,2015-09-05 06:05:00,
2015-09-05 02:15:00,71.1,65.7,29.96,ESE,112,1.0,3.0,83,0.00,,,0.00,Wunderground v.1.15,2015-09-05 06:15:00,
2015-09-05 02:20:00,71.0,65.6,29.96,East,92,1.0,1.0,83,0.00,,,0.00,Wunderground v.1.15,2015-09-05 06:20:00,
2015-09-05 02:30:00,70.7,66.0,29.96,East,94,0.0,0.0,85,0.00,,,0.00,Wunderground v.1.15,2015-09-05 06:30:00,
2015-09-05 02:40:00,70.2,65.5,29.96,East,94,0.0,0.0,85,0.00,,,0.00,Wunderground v.1.15,2015-09-05 06:40:00,
2015-09-05 02:50:00,70.1,65.4,29.96,East,92,0.0,0.0,85,0.00,,,0.00,Wunderground v.1.15,2015-09-05 06:50:00,
2015-09-05 02:55:00,70.1,65.0,29.96,East,92,0.0,0.0,84,0.00,,,0.00,Wunderground v.1.15,2015-09-05 06:55:00,
2015-09-05 03:05:00,69.9,65.2,29.95,East,92,0.0,5.0,85,0.00,,,0.00,Wunderground v.1.15,2015-09-05 07:05:00,
2015-09-05 03:14:00,69.7,65.3,29.96,East,92,0.0,0.0,86,0.00,,,0.00,Wunderground v.1.15,2015-09-05 07:14:00,
2015-09-05 03:20:00,69.4,65.0,29.96,East,92,0.0,0.0,86,0.00,,,0.00,Wunderground v.1.15,2015-09-05 07:20:00,
2015-09-05 03:25:00,69.1,65.1,29.95,East,92,0.0,0.0,87,0.00,,,0.00,Wunderground v.1.15,2015-09-05 07:25:00,
2015-09-05 03:35:00,68.6,64.6,29.95,East,92,0.0,0.0,87,0.00,,,0.00,Wunderground v.1.15,2015-09-05 07:35:00,
2015-09-05 03:40:00,68.5,64.5,29.95,East,92,0.0,0.0,87,0.00,,,0.00,Wunderground v.1.15,2015-09-05 07:40:00,
2015-09-05 03:50:00,68.2,64.5,29.95,East,92,0.0,0.0,88,0.00,,,0.00,Wunderground v.1.15,2015-09-05 07:50:00,
2015-09-05 04:00:00,67.8,64.4,29.95,East,92,0.0,0.0,89,0.00,,,0.00,Wunderground v.1.15,2015-09-05 08:00:00,
2015-09-05 04:05:00,67.5,64.1,29.95,East,92,0.0,0.0,89,0.00,,,0.00,Wunderground v.1.15,2015-09-05 08:05:00,
2015-09-05 04:15:00,67.0,64.0,29.96,East,92,0.0,0.0,90,0.00,,,0.00,Wunderground v.1.15,2015-09-05 08:15:00,
2015-09-05 04:20:00,67.0,64.0,29.95,East,92,0.0,0.0,90,0.00,,,0.00,Wunderground v.1.15,2015-09-05 08:20:00,
2015-09-05 04:30:00,66.8,64.1,29.96,East,92,0.0,0.0,91,0.00,,,0.00,Wunderground v.1.15,2015-09-05 08:30:00,
2015-09-05 04:35:00,66.8,64.1,29.95,East,92,0.0,0.0,91,0.00,,,0.00,Wunderground v.1.15,2015-09-05 08:35:00,
2015-09-05 04:45:00,66.7,63.7,29.96,East,92,0.0,0.0,90,0.00,,,0.00,Wunderground v.1.15,2015-09-05 08:45:00,
2015-09-05 04:55:00,66.4,63.7,29.96,East,92,0.0,0.0,91,0.00,,,0.00,Wunderground v.1.15,2015-09-05 08:55:00,
2015-09-05 05:00:00,66.1,63.4,29.96,East,92,0.0,1.0,91,0.00,,,0.00,Wunderground v.1.15,2015-09-05 09:00:00,
2015-09-05 05:05:00,65.8,63.4,29.96,East,92,0.0,1.0,92,0.00,,,0.00,Wunderground v.1.15,2015-09-05 09:05:00,
2015-09-05 05:15:00,65.4,63.3,29.96,East,92,0.0,0.0,93,0.00,,,0.00,Wunderground v.1.15,2015-09-05 09:15:00,
2015-09-05 05:25:00,65.3,63.2,29.97,East,92,0.0,0.0,93,0.00,,,0.00,Wunderground v.1.15,2015-09-05 09:25:00,
2015-09-05 05:30:00,65.4,63.0,29.97,East,92,0.0,0.0,92,0.00,,,0.00,Wunderground v.1.15,2015-09-05 09:30:00,
2015-09-05 05:40:00,65.7,63.3,29.97,East,92,0.0,0.0,92,0.00,,,0.00,Wunderground v.1.15,2015-09-05 09:40:00,
2015-09-05 05:50:00,65.6,63.2,29.98,East,92,0.0,0.0,92,0.00,,,0.00,Wunderground v.1.15,2015-09-05 09:50:00,
2015-09-05 05:55:00,65.4,63.0,29.98,East,92,0.0,0.0,92,0.00,,,0.00,Wunderground v.1.15,2015-09-05 09:55:00,
2015-09-05 06:05:00,65.7,62.0,29.98,East,92,0.0,0.0,88,0.00,,,0.00,Wunderground v.1.15,2015-09-05 10:05:00,
2015-09-05 06:15:00,66.3,62.3,29.98,East,92,0.0,0.0,87,0.00,,,0.00,Wunderground v.1.15,2015-09-05 10:15:00,
2015-09-05 06:25:00,66.7,62.0,29.99,East,92,0.0,0.0,85,0.00,,,0.00,Wunderground v.1.15,2015-09-05 10:25:00,
2015-09-05 06:35:00,66.5,61.8,29.99,East,92,0.0,0.0,85,0.00,,,0.00,Wunderground v.1.15,2015-09-05 10:35:00,
2015-09-05 06:40:00,66.5,61.8,29.99,East,92,0.0,0.0,85,0.00,,,0.00,Wunderground v.1.15,2015-09-05 10:40:00,
2015-09-05 06:50:00,66.4,61.8,29.99,East,92,0.0,0.0,85,0.00,,,0.00,Wunderground v.1.15,2015-09-05 10:50:00,
2015-09-05 07:00:00,66.4,61.8,30.00,East,92,0.0,0.0,85,0.00,,,0.00,Wunderground v.1.15,2015-09-05 11:00:00,
2015-09-05 07:05:00,66.5,61.8,30.00,East,92,0.0,0.0,85,0.00,,,0.00,Wunderground v.1.15,2015-09-05 11:05:00,
2015-09-05 07:15:00,66.6,61.6,30.00,East,92,0.0,0.0,84,0.00,,,0.00,Wunderground v.1.15,2015-09-05 11:15:00,
2015-09-05 07:20:00,66.7,61.7,30.00,East,92,0.0,0.0,84,0.00,,,0.00,Wunderground v.1.15,2015-09-05 11:20:00,
2015-09-05 07:30:00,66.9,61.9,30.00,East,92,0.0,0.0,84,0.00,,,0.00,Wunderground v.1.15,2015-09-05 11:30:00,
2015-09-05 07:40:00,67.1,62.1,30.01,East,92,0.0,0.0,84,0.00,,,0.00,Wunderground v.1.15,2015-09-05 11:40:00,
2015-09-05 07:45:00,67.0,62.0,30.01,East,92,0.0,0.0,84,0.00,,,0.00,Wunderground v.1.15,2015-09-05 11:45:00,
2015-09-05 07:55:00,66.8,62.5,30.01,East,90,0.0,1.0,86,0.00,,,0.00,Wunderground v.1.15,2015-09-05 11:55:00,
2015-09-05 08:05:00,66.8,62.8,30.01,East,91,0.0,0.0,87,0.00,,,0.00,Wunderground v.1.15,2015-09-05 12:05:00,
2015-09-05 08:15:00,66.9,62.9,30.02,East,91,0.0,0.0,87,0.00,,,0.00,Wunderground v.1.15,2015-09-05 12:15:00,
2015-09-05 08:25:00,67.6,63.6,30.02,East,91,0.0,1.0,87,0.00,,,0.00,Wunderground v.1.15,2015-09-05 12:25:00,
2015-09-05 08:30:00,67.9,63.6,30.02,East,91,0.0,0.0,86,0.00,,,0.00,Wunderground v.1.15,2015-09-05 12:30:00,
2015-09-05 08:40:00,68.6,63.9,30.02,East,91,0.0,0.0,85,0.00,,,0.00,Wunderground v.1.15,2015-09-05 12:40:00,
2015-09-05 08:50:00,69.0,64.0,30.02,East,91,0.0,0.0,84,0.00,,,0.00,Wunderground v.1.15,2015-09-05 12:50:00,
2015-09-05 08:55:00,68.7,64.0,30.03,East,91,0.0,0.0,85,0.00,,,0.00,Wunderground v.1.15,2015-09-05 12:55:00,
2015-09-05 09:05:00,68.6,64.2,30.03,East,91,0.0,2.0,86,0.00,,,0.00,Wunderground v.1.15,2015-09-05 13:05:00,